SES-17

Last updated on Tue Dec 16 2025 00:02:52 GMT+0000 (Coordinated Universal Time)

1 49332U 21095A 25349.25916556 -.00000251 00000+0 00000+0 0 9997 2 49332 0.0212 28.6353 0000899 236.5693 205.1621 1.00269537 16013
UTC large
Height (km)
Speed (km/s)
/
Latitude / Longitude
Inclination (degrees)
Orbital Period (minutes)
Azimuth
Elevation
Range (km)
Doppler Factor

Next 0 passes for location: London (51.5072 / 0.1276)

Sorry there are no passes over London.